Location: Malvern Link
(52.1333°N, 2.3000°W)
Time: 03:18:01
(UTC+00:00)

Cosmos 1975 Rocket - Pass Details

Date: 18 September 2020
Orbit: 603 x 634 km, 82.5° (Epoch: 22 October)

Event Time Altitude Azimuth Distance (km) Brightness Sun altitude
Rises 19:03:59 0° 348° (NNW) 2,887 6.8 -8.1°
Reaches altitude 10° 19:06:13 10° 349° (NNW) 1,973 6.0 -8.4°
Maximum altitude 19:10:35 87° 260° (W) 614 3.1 -9.1°
Drops below altitude 10° 19:14:54 10° 172° (S) 1,947 5.4 -9.7°
Sets 19:17:05 0° 172° (S) 2,845 6.2 -10.1°
